Home   Weather   Oxford   Past weeks

Flag for United Kingdom Past Weather in Oxford, England, United Kingdom — Yesterday and Last 2 Weeks

Now
52 °F

Low clouds.


Feels Like: 49 °F
Forecast: N/A
Wind: 9 mph from South

Location: Benson

Current Time: Dec 9, 2016 at 9:19:10 pm

Latest Report: Dec 9, 2016 at 8:50 pm


Visibility: 4 mi

Pressure: 30.21 "Hg

Humidity: 94%

Dew Point: 50 °F

Location of OxfordLocation

Past Weather in Oxford — Graph

°F

Oxford Temperature Yesterday

Maximum temperature yesterday: 57 °F (at 12:50 pm)
Minimum temperature yesterday: 46 °F (at 7:50 pm)
Average temperature yesterday: 53 °F

High & Low Weather Summary for the Past Weeks

 TemperatureHumidityPressure
High57 °F (Dec 8, 12:50 pm)100% (Nov 25, 10:50 pm)30.57 "Hg (Nov 25, 10:50 pm)
Low18 °F (Nov 30, 2:50 am)37% (Nov 28, 12:50 pm)30.12 "Hg (Nov 26, 12:50 pm)
Average40 °F89%30.30 "Hg
* Reported Nov 24 7:50 pm — Dec 9 7:50 pm, Oxford, Weather by CustomWeather, © 2016

Note: Actual official high and low records may vary slightly from our data, if they occured in-between our weather recording intervals... More about our weather records

Advertising

Oxford Weather History for the Previous 24 Hours

Scroll right to see more
 ConditionsComfort  
Time TempWeatherWind HumidityBarometerVisibility
7:50 pm
Fri, Dec 9
52 °FLow clouds.12 mph94%30.21 "Hg4 mi
6:50 pm52 °FPartly cloudy.15 mph94%30.21 "Hg3 mi
5:50 pm50 °FPassing clouds.14 mph94%30.21 "Hg4 mi
4:50 pm52 °FClear.12 mph94%30.21 "Hg5 mi
3:50 pm54 °FSunny.13 mph88%30.21 "Hg10 mi
2:50 pm55 °FSunny.10 mph88%30.24 "Hg10 mi
1:50 pm57 °FBroken clouds.14 mph82%30.24 "HgN/A
12:50 pm57 °FPartly sunny.15 mph77%30.24 "HgN/A
11:50 am55 °FBroken clouds.13 mph88%30.27 "HgN/A
10:50 am54 °FPartly sunny.13 mph94%30.27 "HgN/A
9:50 am54 °FBroken clouds.10 mph88%30.27 "HgN/A
8:50 am54 °FPartly sunny.8 mph88%30.27 "HgN/A
7:50 am54 °FPassing clouds.12 mph94%30.24 "HgN/A
6:50 am54 °FOvercast.9 mph94%30.27 "HgN/A
5:50 am54 °FLow clouds.14 mph94%30.27 "HgN/A
4:50 am54 °FPartly cloudy.10 mph100%30.27 "HgN/A
3:50 am54 °FFog.10 mph100%30.27 "Hg3 mi
2:50 am54 °FLow clouds.8 mph100%30.27 "Hg2 mi
1:50 am54 °FFog.12 mph100%30.27 "Hg2 mi
12:50 am54 °FLow clouds.8 mph94%30.27 "Hg3 mi
11:50 pm
Thu, Dec 8
54 °FLow clouds.8 mph100%30.30 "Hg2 mi
10:50 pm54 °FFog.9 mph100%30.30 "Hg2 mi
10:03 pm54 °FFog.9 mph94%30.30 "Hg2 mi
9:50 pm54 °FFog.8 mph94%30.30 "Hg4 mi
Weather by CustomWeather, © 2016

See weather overviewHow to use our weather pages